EW9819 Pawcatuck CT US current weather conditions

sailwx.info

Wind from 281 at 0 knots gusting 6

Air temperature -1.7° C
Dewpoint -6.6° C

Last reported at 2019-Dec-07 11:00 UTC.
Time now 2019-Dec-07 12:13 UTC

Location: N 41°22' W 071°52'.
View on Google Maps.

See reports from other nearby stations

  
Tides and Currents Weather Stations Pressure Air Temp Water Temp Dewpoint Dewpoint Depression Visibility Wind Speed Wind Dir Waves Ship Positions
date/time (UTC)wind fromknots sea level pressurealtimeterstation pressurevisibilityair tempwater tempwave heightnotes
2019-Dec-07 11:00 281 0 gusting 6 -1.7
2019-Dec-07 10:45 297 1 gusting 5 -1.7
2019-Dec-07 10:32 323 0 gusting 3 -1.7
2019-Dec-07 10:17 263 3 gusting 10 -1.1
2019-Dec-07 10:01 030 4 gusting 9 -1.1
2019-Dec-07 09:46 360 2 gusting 9 -1.1
2019-Dec-07 09:31 038 2 gusting 11 -1.1
2019-Dec-07 09:16 311 2 gusting 9 -0.6
2019-Dec-07 09:01 314 2 gusting 8 -0.6
2019-Dec-07 08:46 321 2 gusting 9 -0.6
2019-Dec-07 08:32 318 2 gusting 4 -0.6
2019-Dec-07 08:16 290 3 gusting 7 -0.6
2019-Dec-07 08:00 313 2 gusting 5 -0.0
2019-Dec-07 07:45 344 3 gusting 6 -0.0
2019-Dec-07 07:30 318 2 gusting 6 -0.0
2019-Dec-07 07:15 012 2 gusting 9 0.6
2019-Dec-07 07:00 294 6 gusting 12 0.6
2019-Dec-07 06:45 300 3 gusting 9 0.6
2019-Dec-07 06:30 300 3 gusting 9 1.1
2019-Dec-07 06:16 039 4 gusting 15 1.1
2019-Dec-07 06:00 310 6 gusting 18 1.7
2019-Dec-07 05:45 290 5 gusting 20 1.7
2019-Dec-07 05:30 360 4 gusting 13 1.7
2019-Dec-07 05:15 292 6 gusting 13 2.2
2019-Dec-07 05:01 017 6 gusting 14 2.2
2019-Dec-07 04:46 308 6 gusting 13 2.2
2019-Dec-07 04:31 301 6 gusting 14 2.8
2019-Dec-07 04:17 292 4 gusting 12 3.3
2019-Dec-07 04:02 271 6 gusting 14 3.3
2019-Dec-07 03:46 294 6 gusting 16 3.9
2019-Dec-07 03:32 282 7 gusting 18 4.4
2019-Dec-07 03:16 286 8 gusting 15 5.0
2019-Dec-07 03:01 297 6 gusting 24 5.6
2019-Dec-07 02:47 013 7 gusting 16 6.7
2019-Dec-07 02:31 300 7 gusting 13 7.2
2019-Dec-07 02:16 333 10 gusting 18 7.2
2019-Dec-07 02:01 306 6 gusting 13 7.8
2019-Dec-07 01:46 279 9 gusting 17 7.8
2019-Dec-07 01:32 300 3 gusting 13 8.3
2019-Dec-07 01:16 302 5 gusting 17 8.3
2019-Dec-07 01:02 289 10 gusting 17 8.9
2019-Dec-07 00:46 297 5 gusting 16 8.9
2019-Dec-07 00:32 255 4 gusting 14 8.9
2019-Dec-07 00:16 284 2 gusting 13 8.9
2019-Dec-07 00:01 227 4 gusting 10 8.9
2019-Dec-06 23:47 271 3 gusting 10 8.9
2019-Dec-06 23:32 275 3 gusting 14 8.9
2019-Dec-06 23:16 261 4 gusting 10 8.9
2019-Dec-06 23:01 234 3 gusting 14 8.9
2019-Dec-06 22:46 260 6 gusting 16 8.9
2019-Dec-06 22:30 209 6 gusting 12 8.9
2019-Dec-06 22:16 166 2 gusting 13 8.9
2019-Dec-06 22:00 219 3 gusting 10 8.3
2019-Dec-06 21:45 218 6 gusting 15 8.3
2019-Dec-06 21:31 209 5 gusting 13 8.3
2019-Dec-06 21:16 195 5 gusting 12 8.3
2019-Dec-06 21:00 192 4 gusting 13 7.8
2019-Dec-06 20:45 258 4 gusting 8 7.8
2019-Dec-06 20:30 190 2 gusting 15 7.2
2019-Dec-06 20:15 284 3 gusting 10 7.2
2019-Dec-06 20:00 214 5 gusting 10 7.2
2019-Dec-06 19:45 212 2 gusting 10 6.7
2019-Dec-06 19:17 265 1 gusting 6 6.1
2019-Dec-06 19:02 232 2 gusting 8 6.1
2019-Dec-06 18:33 242 3 gusting 7 5.6
2019-Dec-06 18:16 184 2 gusting 6 5.0
2019-Dec-06 18:01 222 1 gusting 7 5.0
2019-Dec-06 17:46 236 2 gusting 9 4.4
2019-Dec-06 17:30 258 3 gusting 10 4.4
2019-Dec-06 17:16 259 0 gusting 7 3.9
2019-Dec-06 17:01 257 3 gusting 8 3.9
2019-Dec-06 16:46 245 4 gusting 11 3.3
2019-Dec-06 16:31 218 3 gusting 11 3.9
2019-Dec-06 16:15 215 3 gusting 8 3.3
2019-Dec-06 16:01 250 0 gusting 6 2.8
2019-Dec-06 15:45 261 2.8
2019-Dec-06 15:30 245 2.2
2019-Dec-06 15:15 200 2.2
2019-Dec-06 15:00 250 1.7
2019-Dec-06 14:45 247 1 gusting 2 1.1
2019-Dec-06 14:30 232 1.1
2019-Dec-06 14:15 210 0.6
2019-Dec-06 14:00 275 0.6
2019-Dec-06 13:45 227 -0.0
2019-Dec-06 13:30 275 -0.0
2019-Dec-06 13:15 276 1 gusting 4 -0.0
2019-Dec-06 13:00 284 1 gusting 4 -0.0
2019-Dec-06 12:45 247 1 gusting 5 -0.6
2019-Dec-06 12:30 245 0 gusting 2 -0.6
2019-Dec-06 12:15 207 -1.1
2019-Dec-06 12:01 235 -1.1
2019-Dec-06 11:47 275 -1.1
2019-Dec-06 11:31 251 -1.7
2019-Dec-06 11:16 250 0 gusting 1 -1.7
2019-Dec-06 11:01 247 0 gusting 1 -1.7
2019-Dec-06 10:47 247 -1.7
2019-Dec-06 10:31 247 -2.2
2019-Dec-06 10:16 247 -1.7
2019-Dec-06 10:02 247 -1.7
2019-Dec-06 09:46 247 -1.7
2019-Dec-06 09:31 247 -1.7
2019-Dec-06 09:17 247 -1.1
2019-Dec-06 09:01 247 -1.1
2019-Dec-06 08:45 274 -0.6
2019-Dec-06 08:31 308 1 gusting 6 -0.6
2019-Dec-06 08:16 271 1 gusting 6 -0.6
2019-Dec-06 08:00 304 1 gusting 6 -0.6
2019-Dec-06 07:45 276 1 gusting 6 -0.6
2019-Dec-06 07:30 250 1 gusting 5 -0.6
2019-Dec-06 07:16 246 0 gusting 6 -0.6
2019-Dec-06 07:01 277 1 gusting 9 -0.0
2019-Dec-06 06:45 283 1 gusting 4 -0.0
2019-Dec-06 06:31 345 -0.0
2019-Dec-06 06:15 257 4 gusting 8 0.6
2019-Dec-06 06:00 285 3 gusting 9 0.6
2019-Dec-06 05:45 292 5 gusting 12 0.6
2019-Dec-06 05:30 308 3 gusting 9 0.6
2019-Dec-06 05:15 292 3 gusting 9 0.6
2019-Dec-06 04:45 298 3 gusting 9 1.1
2019-Dec-06 04:30 275 2 gusting 11 1.1
2019-Dec-06 04:16 276 6 gusting 14 1.1
2019-Dec-06 04:02 316 5 gusting 13 1.7
2019-Dec-06 03:48 281 5 gusting 13 1.7
2019-Dec-06 03:31 257 4 gusting 16 1.7
2019-Dec-06 03:17 284 5 gusting 14 1.7
2019-Dec-06 03:01 292 7 gusting 14 1.7
2019-Dec-06 02:46 286 5 gusting 12 1.7
2019-Dec-06 02:32 278 1 gusting 10 1.7
2019-Dec-06 02:17 294 1 gusting 7 1.7
2019-Dec-06 02:01 273 2 gusting 10 1.7
2019-Dec-06 01:46 293 2 gusting 11 1.7
2019-Dec-06 01:30 280 6 gusting 13 1.7
2019-Dec-06 01:16 320 3 gusting 8 2.2
2019-Dec-06 01:00 265 1 gusting 7 2.2
2019-Dec-06 00:45 274 3 gusting 8 2.2
2019-Dec-06 00:30 255 3 gusting 10 2.2
2019-Dec-06 00:16 246 4 gusting 11 2.2
2019-Dec-06 00:00 322 5 gusting 10 2.8
2019-Dec-05 23:46 283 3 gusting 18 2.8
2019-Dec-05 23:31 355 5 gusting 18 3.3
2019-Dec-05 23:16 255 3 gusting 9 3.3
2019-Dec-05 23:00 301 8 gusting 14 3.3
2019-Dec-05 22:45 296 8 gusting 15 3.9
2019-Dec-05 22:30 291 3 gusting 14 3.3
2019-Dec-05 22:15 306 3 gusting 8 3.3
2019-Dec-05 22:00 291 3.3
2019-Dec-05 21:45 256 1 gusting 9 3.3
2019-Dec-05 21:32 242 3 gusting 6 3.9
2019-Dec-05 21:17 277 4 gusting 8 3.9
2019-Dec-05 21:02 281 5 gusting 12 3.9
2019-Dec-05 20:46 284 7 gusting 15 4.4
2019-Dec-05 20:31 297 5 gusting 16 4.4
2019-Dec-05 20:16 288 3 gusting 12 4.4
2019-Dec-05 20:01 317 7 gusting 13 4.4
2019-Dec-05 19:46 293 6 gusting 15 4.4
2019-Dec-05 19:31 291 7 gusting 16 4.4
2019-Dec-05 19:16 305 8 gusting 19 4.4
2019-Dec-05 19:02 308 11 gusting 21 5.0
2019-Dec-05 18:47 342 11 gusting 20 5.6
2019-Dec-05 18:31 277 6 gusting 13 5.6
2019-Dec-05 18:15 261 10 gusting 17 5.0
2019-Dec-05 18:01 283 9 gusting 24 5.0
2019-Dec-05 17:45 288 8 gusting 15 5.6
2019-Dec-05 17:30 295 7 gusting 13 5.6
2019-Dec-05 17:15 298 6 gusting 16 5.6
2019-Dec-05 17:00 302 4 gusting 14 5.6
2019-Dec-05 16:45 288 9 gusting 15 5.6
2019-Dec-05 16:31 281 5 gusting 16 5.6
2019-Dec-05 16:15 285 8 gusting 16 5.6
2019-Dec-05 16:01 336 8 gusting 18 5.0
2019-Dec-05 15:45 269 9 gusting 17 5.0
2019-Dec-05 15:30 360 11 gusting 18 5.0
2019-Dec-05 15:15 261 4 gusting 13 5.0
2019-Dec-05 15:01 287 7 gusting 17 5.0
2019-Dec-05 14:45 316 4 gusting 9 4.4
2019-Dec-05 14:30 272 3 gusting 8 3.9
2019-Dec-05 14:15 284 2 gusting 11 3.9
2019-Dec-05 13:47 322 1 gusting 6 2.2
2019-Dec-05 13:32 284 1.7
2019-Dec-05 13:18 311 0 gusting 3 1.7
2019-Dec-05 13:01 267 1.1
2019-Dec-05 12:46 257 1.1
2019-Dec-05 12:31 253 1.1
2019-Dec-05 12:16 264 0 gusting 2 1.1
2019-Dec-05 12:01 271 0 gusting 3 1.1